Flag for United Kingdom Weather past 2 weeks in Colchester, England, United Kingdom

Now
52 °F

Overcast.


Feels Like: 47 °F
Forecast: 44 / 56 °F
Wind: 15 mph from Southwest

Location: Luton Airport

Current Time: May 28, 2015 at 3:39:45 AM

Latest Report: May 28, 2015 at 3:20 AM


Visibility: N/A

Pressure: 29.92 "Hg

Humidity: 88%

Dew point: 48 °F

Location of ColchesterLocation

Historic Weather in Colchester — Graph

°F

Colchester temperature yesterday

Maximum temperature yesterday: 64 °F (at 2:20 PM)
Minimum temperature yesterday: 43 °F (at 3:50 AM)
Average temperature yesterday: 54 °F

Past Weeks' High & Low Weather Summary

 TemperatureHumidityPressure
High66 °F (May 21, 3:20 PM)100% (May 14, 2:20 AM)30.33 "Hg (May 14, 2:20 AM)
Low41 °F (May 13, 4:20 AM)43% (May 21, 3:20 PM)29.53 "Hg (May 18, 12:50 PM)
Average52 °F77%30.08 "Hg
* Reported May 13 2:20 AM — May 28 2:20 AM, Colchester, Weather by CustomWeather, © 2015

Note: Actual official high and low records may vary slightly from our data, if they occured in-between our weather recording intervals... More about our weather records

Advertising

Colchester weather history for previous 24 hours

 ConditionsComfort  
Time TempWeatherWind HumidityBarometerVisibility
2:20 AM
Thu, May 28
50 °FPassing clouds.12 mph94%29.92 "HgN/A
1:50 AM52 °FOvercast.15 mph88%29.92 "HgN/A
1:20 AM52 °FPassing clouds.13 mph82%29.95 "HgN/A
12:50 AM52 °FPassing clouds.13 mph82%29.95 "HgN/A
12:20 AM50 °FPassing clouds.16 mph88%29.95 "HgN/A
11:50 PM
Wed, May 27
52 °FPassing clouds.16 mph77%29.98 "HgN/A
11:20 PM52 °FPassing clouds.14 mph67%29.98 "HgN/A
10:50 PM54 °FPassing clouds.15 mph77%29.98 "HgN/A
10:20 PM54 °FPassing clouds.9 mph82%29.98 "HgN/A
9:50 PM55 °FPassing clouds.13 mph77%29.98 "HgN/A
9:20 PM55 °FScattered clouds.13 mph82%29.98 "HgN/A
8:50 PM55 °FPassing clouds.12 mph82%29.98 "HgN/A
8:20 PM59 °FSprinkles. Passing clouds.14 mph68%30.01 "HgN/A
7:50 PM59 °FPassing clouds.15 mph68%30.04 "HgN/A
7:20 PM61 °FPassing clouds.16 mph63%30.04 "HgN/A
6:50 PM61 °FSunny.12 mph63%30.04 "Hg10 mi
6:20 PM61 °FScattered clouds.12 mph63%30.04 "HgN/A
5:50 PM63 °FPassing clouds.10 mph59%30.07 "HgN/A
5:20 PM63 °FPassing clouds.12 mph59%30.07 "HgN/A
4:50 PM63 °FPassing clouds.12 mph59%30.09 "HgN/A
4:20 PM63 °FPassing clouds.13 mph59%30.12 "HgN/A
3:50 PM63 °FPassing clouds.12 mph56%30.12 "HgN/A
3:20 PM64 °FPassing clouds.9 mph52%30.12 "HgN/A
2:50 PM64 °FPassing clouds.12 mph52%30.15 "HgN/A
2:20 PM64 °FPassing clouds.9 mph56%30.15 "HgN/A
1:50 PM63 °FPassing clouds.7 mph56%30.18 "HgN/A
1:20 PM61 °FSunny.8 mph59%30.18 "Hg10 mi
12:50 PM61 °FPassing clouds.9 mph59%30.21 "HgN/A
12:20 PM59 °FPassing clouds.9 mph59%30.21 "HgN/A
11:50 AM59 °FPassing clouds.8 mph59%30.21 "HgN/A
11:20 AM57 °FPassing clouds.8 mph59%30.24 "HgN/A
10:50 AM55 °FPassing clouds.9 mph63%30.24 "HgN/A
10:20 AM55 °FScattered clouds.5 mph63%30.24 "HgN/A
9:50 AM54 °FPassing clouds.6 mph63%30.27 "HgN/A
9:20 AM52 °FPassing clouds.8 mph67%30.27 "HgN/A
8:50 AM52 °FPassing clouds.10 mph67%30.27 "HgN/A
8:20 AM50 °FPassing clouds.10 mph71%30.27 "HgN/A
7:50 AM48 °FSunny.10 mph76%30.30 "Hg10 mi
7:20 AM46 °FPassing clouds.9 mph82%30.30 "HgN/A
6:50 AM46 °FCool.10 mph82%30.30 "HgN/A
6:20 AM45 °FSunny.10 mph87%30.30 "Hg10 mi
5:50 AM45 °FQuite cool.10 mph87%30.27 "HgN/A
5:20 AM43 °FClear.9 mph93%30.27 "HgN/A
4:50 AM43 °FClear.8 mph87%30.27 "Hg10 mi
4:20 AM43 °FClear.8 mph87%30.27 "Hg10 mi
3:50 AM43 °FClear.8 mph87%30.27 "Hg10 mi
3:20 AM45 °FClear.8 mph87%30.30 "Hg10 mi
Weather by CustomWeather, © 2015

See weather overviewHow to use our weather pages